Weather History for Robstown, TX

Change the Weather History Date:

Wednesday, January 9, 2013

  Actual Average (KCRP) Record (KCRP)
Temperature  
Mean Temperature 61 °F 57 °F  
Max Temperature 68 °F 66 °F 85 °F (1957)
Min Temperature 54 °F 47 °F 24 °F (2010)
Degree Days  
Heating Degree Days 4 9  
Month to date heating degree days 81  
Since 1 July heating degree days 432  
Cooling Degree Days 0 1  
Month to date cooling degree days 9  
Year to date cooling degree days 9  
Growing Degree Days 11 (Base 50)    
Moisture  
Dew Point 60 °F    
Average Humidity 91    
Maximum Humidity 96    
Minimum Humidity 80    
Precipitation  
Precipitation 0.18 in 0.05 in 2.89 in (1984)
Month to date precipitation 0.47  
Year to date precipitation 0.47  
Snow  
Snow 0.00 in - - ()
Month to date snowfall  
Since 1 July snowfall  
Snow Depth -    
Sea Level Pressure  
Sea Level Pressure 29.93 in    
Wind  
Wind Speed 9 mph (West)    
Max Wind Speed 20 mph    
Max Gust Speed 26 mph    
Visibility 8 miles    
Events Rain , Thunderstorm    
T = Trace of Precipitation, MM = Missing Value Source: NWS Daily Summary

Daily Weather History Graph

Daily Weather History Graph

Search for Another Location

Airport:

Trip Planner

Search our weather history database for the weather conditions in past years. The results will help you decide how hot, cold, wet, or windy it might be!

Date:

Astronomy

Jan. 09, 2013 Rise Set
Actual Time 7:23 AM CST 5:53 PM CST
Civil Twilight 6:57 AM CST 6:18 PM CST
Nautical Twilight 6:28 AM CST 6:47 PM CST
Astronomical Twilight 6:00 AM CST 7:15 PM CST
Moon 5:03 AM CST (1/9) 3:56 PM CST (1/9)
Length of Visible Light 11h 21m
Length of Day
10h 30m
Waning Crescent, 6% of the Moon is Illuminated
Jan 9
Waning Crescent
Jan 11
New
Jan 18
First Quarter
Jan 26
Full
Feb 3
Last Quarter

Hourly Weather History & Observations

Time (CST) Temp. Dew Point Humidity Pressure Visibility Wind Dir Wind Speed Gust Speed Precip Events Conditions
12:15 AM 68.5 °F 66.6 °F 93% 29.86 in 5.0 mi SSE 10.4 mph - N/A   Overcast
12:35 AM 68.2 °F 66.4 °F 94% 29.87 in 4.0 mi South 6.9 mph - N/A   Overcast
12:55 AM 68.2 °F 66.6 °F 95% 29.86 in 4.0 mi South 6.9 mph - N/A   Overcast
1:15 AM 68.4 °F 66.7 °F 95% 29.85 in 7.0 mi SSE 11.5 mph - N/A   Overcast
1:35 AM 68.9 °F 67.1 °F 94% 29.85 in 7.0 mi SSE 12.7 mph - N/A   Overcast
1:55 AM 68.9 °F 67.1 °F 94% 29.85 in 5.0 mi SSE 10.4 mph - N/A   Overcast
2:15 AM 68.7 °F 67.1 °F 95% 29.84 in 5.0 mi SSE 6.9 mph - N/A   Mostly Cloudy
2:35 AM 68.4 °F 66.7 °F 95% 29.83 in 5.0 mi SE 8.1 mph - N/A   Mostly Cloudy
2:55 AM 68.4 °F 66.7 °F 95% 29.85 in 7.0 mi SE 10.4 mph - N/A   Overcast
3:15 AM 68.5 °F 66.9 °F 95% 29.85 in 7.0 mi SSE 8.1 mph - N/A   Overcast
3:35 AM 68.7 °F 67.1 °F 95% 29.84 in 7.0 mi South 4.6 mph - N/A   Light Drizzle
3:55 AM 68.5 °F 67.1 °F 95% 29.83 in 7.0 mi South 6.9 mph - N/A   Overcast
4:15 AM 68.4 °F 67.1 °F 96% 29.84 in 4.0 mi South 9.2 mph - 0.05 in Rain Rain
4:35 AM 68.4 °F 67.1 °F 96% 29.83 in 5.0 mi SSW 8.1 mph - 0.10 in Rain Light Rain
4:55 AM 68.4 °F 67.1 °F 96% 29.85 in 5.0 mi SW 9.2 mph - N/A Rain Light Rain
5:15 AM 67.5 °F 65.7 °F 94% 29.84 in 7.0 mi West 13.8 mph 20.7 mph N/A   Overcast
5:35 AM 64.9 °F 62.6 °F 92% 29.85 in 10.0 mi West 13.8 mph - N/A   Overcast
5:55 AM 63.9 °F 61.3 °F 91% 29.86 in 10.0 mi WNW 11.5 mph - N/A   Overcast
6:15 AM 63.5 °F 61.0 °F 91% 29.86 in 10.0 mi NW 10.4 mph - N/A   Overcast
6:35 AM 63.5 °F 61.3 °F 93% 29.86 in 10.0 mi NW 8.1 mph - N/A Thunderstorm Overcast
6:55 AM 62.8 °F 61.0 °F 94% 29.89 in 10.0 mi WNW 19.6 mph - N/A   Light Drizzle
7:15 AM 60.6 °F 58.6 °F 93% 29.89 in 10.0 mi NW 18.4 mph 26.5 mph N/A   Overcast
7:35 AM 60.1 °F 58.1 °F 93% 29.91 in 10.0 mi WNW 15.0 mph - N/A   Overcast
7:55 AM 60.1 °F 58.1 °F 93% 29.91 in 10.0 mi NNW 13.8 mph - N/A   Overcast
8:15 AM 60.1 °F 58.1 °F 93% 29.93 in 5.0 mi NW 15.0 mph 21.9 mph 0.02 in Rain Light Rain
8:35 AM 59.9 °F 58.1 °F 94% 29.95 in 7.0 mi NW 13.8 mph - 0.03 in Rain Rain
8:55 AM 60.1 °F 58.1 °F 93% 29.97 in 10.0 mi NW 10.4 mph - N/A Rain Light Rain
9:15 AM 60.1 °F 58.1 °F 93% 29.97 in 10.0 mi NW 12.7 mph - N/A Rain Light Rain
9:35 AM 59.9 °F 58.1 °F 94% 29.97 in 10.0 mi NNW 10.4 mph - 0.01 in Rain Light Rain
9:55 AM 59.9 °F 57.7 °F 93% 29.94 in 10.0 mi NNW 13.8 mph - 0.01 in Rain Light Rain
10:15 AM 59.9 °F 58.1 °F 94% 29.91 in 10.0 mi NNE 11.5 mph 19.6 mph 0.02 in Rain Light Rain
10:35 AM 60.4 °F 58.5 °F 93% 29.92 in 10.0 mi NNE 12.7 mph 17.3 mph 0.02 in   Overcast
10:55 AM 61.0 °F 58.8 °F 93% 29.92 in 10.0 mi NNE 10.4 mph - N/A Rain Light Rain
11:15 AM 61.3 °F 58.8 °F 91% 29.95 in 10.0 mi NNE 8.1 mph - N/A Rain Rain
11:35 AM 61.3 °F 59.0 °F 92% 29.89 in 10.0 mi ENE 9.2 mph - 0.02 in Rain Light Rain
12:15 PM 63.3 °F 60.6 °F 91% 29.93 in 10.0 mi West 10.4 mph - N/A   Scattered Clouds
12:35 PM 63.0 °F 60.3 °F 91% 29.93 in 10.0 mi WSW 9.2 mph - N/A   Mostly Cloudy
12:55 PM 63.1 °F 59.9 °F 89% 29.92 in 10.0 mi West 12.7 mph - N/A   Mostly Cloudy
1:15 PM 64.4 °F 60.8 °F 88% 29.90 in 10.0 mi West 11.5 mph - N/A   Mostly Cloudy
1:35 PM 64.6 °F 60.6 °F 87% 29.90 in 10.0 mi West 10.4 mph - N/A   Mostly Cloudy
1:55 PM 64.4 °F 60.1 °F 86% 29.92 in 10.0 mi WSW 11.5 mph - N/A   Overcast
2:15 PM 64.8 °F 59.9 °F 84% 29.90 in 10.0 mi WSW 10.4 mph - N/A   Mostly Cloudy
2:35 PM 65.3 °F 60.1 °F 83% 29.91 in 10.0 mi West 9.2 mph - N/A   Scattered Clouds
2:55 PM 65.5 °F 60.3 °F 83% 29.91 in 10.0 mi West 9.2 mph - N/A   Scattered Clouds
3:15 PM 65.5 °F 60.3 °F 83% 29.92 in 10.0 mi West 6.9 mph - N/A   Mostly Cloudy
3:35 PM 66.2 °F 60.6 °F 82% 29.94 in 10.0 mi West 9.2 mph - N/A   Overcast
3:55 PM 65.5 °F 59.9 °F 82% 29.95 in 10.0 mi West 10.4 mph - N/A   Overcast
4:15 PM 65.5 °F 59.9 °F 82% 29.96 in 10.0 mi WSW 5.8 mph - N/A   Mostly Cloudy
4:35 PM 65.5 °F 59.0 °F 80% 29.96 in 10.0 mi Calm Calm - N/A   Scattered Clouds
4:55 PM 65.3 °F 59.9 °F 83% 29.96 in 10.0 mi West 6.9 mph - N/A   Clear
5:15 PM 65.1 °F 60.3 °F 84% 29.96 in 10.0 mi West 3.5 mph - N/A   Clear
5:35 PM 65.7 °F 60.1 °F 82% 29.97 in 10.0 mi West 4.6 mph - N/A   Clear
5:55 PM 64.6 °F 59.7 °F 84% 29.98 in 10.0 mi WNW 6.9 mph - N/A   Mostly Cloudy
6:15 PM 64.2 °F 59.2 °F 84% 29.99 in 10.0 mi WNW 4.6 mph - N/A   Overcast
6:35 PM 63.5 °F 58.8 °F 85% 30.00 in 10.0 mi WNW 4.6 mph - N/A   Overcast
6:55 PM 62.8 °F 58.3 °F 85% 30.01 in 10.0 mi NW 3.5 mph - N/A   Mostly Cloudy
7:15 PM 61.7 °F 58.3 °F 89% 30.02 in 10.0 mi WNW 3.5 mph - N/A Thunderstorm Scattered Clouds
8:15 PM 59.2 °F 56.8 °F 92% 30.02 in 10.0 mi Calm Calm - N/A   Clear
8:35 PM 59.2 °F 57.0 °F 93% 30.02 in 10.0 mi NW 3.5 mph - N/A   Clear
8:55 PM 57.7 °F 55.9 °F 94% 30.03 in 10.0 mi Calm Calm - N/A   Clear
9:15 PM 57.7 °F 56.1 °F 94% 30.03 in 7.0 mi Calm Calm - N/A   Clear
9:35 PM 57.6 °F 56.3 °F 96% 30.03 in 7.0 mi Calm Calm - N/A   Clear
9:55 PM 55.4 °F 54.0 °F 95% 30.04 in 7.0 mi Calm Calm - N/A   Clear
10:15 PM 55.4 °F 54.0 °F 95% 30.04 in 10.0 mi SE 3.5 mph - N/A   Clear
10:35 PM 55.4 °F 53.8 °F 94% 30.05 in 7.0 mi SSW 3.5 mph - N/A   Clear
10:55 PM 55.2 °F 53.8 °F 95% 30.04 in 7.0 mi Calm Calm - N/A   Clear
11:15 PM 54.1 °F 52.9 °F 95% 30.04 in 7.0 mi Calm Calm - N/A   Clear
11:35 PM 54.5 °F 53.2 °F 96% 30.05 in 7.0 mi West 5.8 mph - N/A   Clear
11:55 PM 54.7 °F 53.6 °F 96% 30.06 in 7.0 mi West 4.6 mph - N/A   Clear